Home > Weather > San Cristóbal > Past weeks

Flag for Venezuela Weather for the Past 2 Weeks in San Cristóbal, Venezuela

Now
82 °F

Passing clouds.


Feels Like: 84 °F
Forecast: 70 / 89 °F
Wind: 7 mph from South

Location: San Antonio Del Tachira Airport

Current Time: May 5, 2016 at 4:34:35 AM

Latest Report: May 4, 2016 at 11:00 PM


Visibility: N/A

Pressure: 29.95 "Hg (27.06 "Hg at 893m altitude)

Humidity: 55%

Dew Point: 64 °F

Location of San CristóbalLocation

Historic Weather in San Cristóbal — Graph

°F

San Cristóbal Temperature Yesterday

Maximum temperature yesterday: 95 °F (at 4:00 PM)
Minimum temperature yesterday: 81 °F (at 2:00 AM)
Average temperature yesterday: 86 °F

High & Low Weather Summary for the Past Weeks

 TemperatureHumidityPressure
High99 °F (Apr 21, 5:30 PM)100% (Apr 24, 1:30 AM)30.04 "Hg (Apr 24, 1:30 AM)
Low45 °F (May 2, 8:00 AM)34% (Apr 23, 2:30 PM)29.77 "Hg (Apr 26, 3:30 PM)
Average85 °F60%29.89 "Hg
* Reported Apr 20 5:30 AM — May 4 11:00 PM, San Cristóbal, Weather by CustomWeather, © 2016

Note: Actual official high and low records may vary slightly from our data, if they occured in-between our weather recording intervals... More about our weather records

Advertising

San Cristóbal Weather History for the Previous 24 Hours

Scroll right to see more
 ConditionsComfort  
Time TempWeatherWind HumidityBarometerVisibility
11:00 PM
Wed, May 4
82 °FPassing clouds.7 mph55%29.95 "HgN/A
10:00 PM82 °FPassing clouds.12 mph100%29.95 "HgN/A
8:00 PM82 °FPassing clouds.10 mph58%29.92 "HgN/A
7:00 PM84 °FPassing clouds.9 mph55%29.89 "HgN/A
6:00 PM88 °FPassing clouds.6 mph49%29.86 "HgN/A
5:00 PM95 °FPartly sunny.6 mph41%29.89 "HgN/A
4:00 PM95 °FPartly sunny.6 mph41%29.89 "HgN/A
3:00 PM90 °FPartly sunny.12 mph49%29.89 "HgN/A
2:00 PM90 °FPartly sunny.6 mph49%29.98 "HgN/A
1:00 PM90 °FPartly sunny.10 mph46%29.98 "HgN/A
12:00 PM88 °FWarm.7 mph49%29.98 "HgN/A
11:00 AM88 °FPartly sunny.8 mph55%30.01 "HgN/A
10:00 AM86 °FPartly sunny.12 mph62%30.01 "HgN/A
9:00 AM82 °FOvercast.3 mph62%N/AN/A
8:00 AM81 °FOvercast.8 mph66%29.95 "HgN/A
7:00 AM81 °FOvercast.8 mph66%29.95 "HgN/A
6:00 AM81 °FPartly sunny.7 mph62%29.95 "HgN/A
Weather by CustomWeather, © 2016

See weather overviewHow to use our weather pages